STARLINK-5525, 57218

Orbit data source: Space-Track

STARLINK-5525, 57218 is a payload satellite owned by SpaceX/Seattle (US) in LEO that was launched on Fri, 07 Jul 2023 UTC via an FALCON 9 launch vehicle from the Air Force Western Test Range (AFWTR). Payload-class satellites include a variety of spacecraft equipped with specific instruments for various scientific and technological missions. These include communications satellites like Starlink; space stations such as the ISS; scientific satellites like the Hubble; Earth observation satellites from companies like Planet Labs, Umbra, and HawkEye 360; GPS; miniature CubeSats for education and research; and military/defense satellites.

Loading next visibility...
Identifier
57218, 2023-094A
Orbit
LEO
Country
Flag of USUS
Related business
Manufacturer
SpaceX/Seattle
Mission
Operational Commercial Communications
Bus & Motor
STARLINK, Unknown motor
Mass
305 kg wet, ~290 kg dry
Launch date (UTC)
2023-07-07 (3 years ago)
Launch vehicle
FALCON 9
Launch site
Air Force Western Test Range (AFWTR)
Object type
Payload
Rocket body
Debris
Shape & HBR
Box + 1 Pan, 10.1 m
Radar Cross Section
11.087 m², Large (>1 m²)

Expand to show TLE details & history
Last TLE update: 8 hours ago

TLE from 8 hours ago
0 STARLINK-5525
1 57218U 23094A   26167.79439331  .00000855  00000-0  40606-4 0  9990
2 57218  43.0123 190.9219 0003404 277.5878  82.4587 15.27585343162279
Epoch: 2026-06-16T19:03Z
TLE epoch observation values (Epoch: 2026-06-16T19:03:55.581Z)
Latitude
-0.00005°
Longitude
-0.12105°
Altitude
482.504 km
Speed
7.626 km/s
True Right ascension
12h 43m 41s
True Declination
0° 00' 00"
Sunlit
Object was in daylight at epoch
Visualization orbit readout
Latitude
Unknown
Longitude
Unknown
Altitude
Unknown
Speed
Unknown
Apparent Right ascension
Unknown
Apparent Declination
Unknown
Sunlit
N/A
Visualization observer readout
Local Sidereal Time
13:24:42
Azimuth
Unknown
Elevation
Unknown
Doppler factor
Unknown
Orbital elements
Apogee altitude
487.312 km
Perigee altitude
482.64 km
Semi-major axis
6,863.113 km
Eccentricity
0.00034
Inclination
43.0123°
RAAN
190.9219°
Arg. of periapsis
277.5878°
True anomaly
82.49737°
Mean anomaly
82.4587°
Eccentric anomaly
82.47804°
Mean motion
3.81735 °/min
Orbital period
94.31 mins
BSTAR
0.000040606
Loading maneuver chart data...
Computing Atmospheric mass density...
Loading historical data...
Loading historical data...
Loading historical data...
Loading historical data...
Loading historical data...
Loading historical data...
Loading historical data...

Documentation

Showing up to 5 results
|